Location: Goettingen
(51.5300°N, 9.9433°E)
Time: 17:48:53
(UTC+02:00)

ISS - Pass Details

Date: 26 May 2020
Orbit: 417 x 420 km, 51.6° (Epoch: 26 May)

Event Time Altitude Azimuth Distance (km) Brightness Sun altitude
Rises 23:07:50 0° 283° (WNW) 2,368 0.8 -11.8°
Reaches altitude 10° 23:09:58 10° 278° (W) 1,502 -0.4 -12.0°
Maximum altitude 23:13:13 47° 204° (SSW) 569 -3.4 -12.2°
Enters shadow 23:15:06 22° 139° (SE) 982 -2.5 -12.4°
